TimeCDT,TemperatureF,Dew PointF,Humidity,Sea Level PressureIn,VisibilityMPH,Wind Direction,Wind SpeedMPH,Gust SpeedMPH,PrecipitationIn,Events,Conditions,WindDirDegrees,DateUTC
12:53 AM,70.0,54.0,57,29.76,10.0,South,8.1,-,N/A,,Scattered Clouds,180,2013-10-12 05:53:00
1:53 AM,69.1,54.0,58,29.76,10.0,South,8.1,-,N/A,,Clear,170,2013-10-12 06:53:00
2:53 AM,68.0,55.0,63,29.76,10.0,South,10.4,-,N/A,,Scattered Clouds,170,2013-10-12 07:53:00
3:53 AM,68.0,55.0,63,29.77,10.0,SSE,8.1,-,N/A,,Mostly Cloudy,160,2013-10-12 08:53:00
4:53 AM,66.9,55.9,68,29.78,10.0,South,3.5,-,N/A,,Overcast,170,2013-10-12 09:53:00
5:27 AM,64.4,51.8,64,29.82,10.0,WNW,11.5,-,N/A,,Overcast,290,2013-10-12 10:27:00
5:53 AM,62.1,50.0,65,29.81,10.0,WNW,16.1,-,N/A,,Overcast,300,2013-10-12 10:53:00
6:31 AM,59.0,46.4,63,29.86,9.0,West,15.0,-,N/A,,Mostly Cloudy,280,2013-10-12 11:31:00
6:53 AM,57.9,45.0,62,29.86,10.0,West,15.0,-,N/A,,Mostly Cloudy,280,2013-10-12 11:53:00
7:53 AM,55.9,45.0,67,29.88,10.0,West,6.9,-,N/A,,Partly Cloudy,270,2013-10-12 12:53:00
8:53 AM,55.9,44.1,64,29.91,10.0,West,11.5,-,N/A,,Clear,260,2013-10-12 13:53:00
9:53 AM,59.0,44.1,58,29.92,10.0,WSW,9.2,-,N/A,,Clear,250,2013-10-12 14:53:00
10:53 AM,61.0,43.0,52,29.92,10.0,WSW,13.8,-,N/A,,Clear,250,2013-10-12 15:53:00
11:53 AM,63.0,42.1,46,29.94,10.0,West,13.8,-,N/A,,Clear,260,2013-10-12 16:53:00
12:53 PM,64.0,41.0,43,29.95,10.0,WSW,15.0,-,N/A,,Clear,250,2013-10-12 17:53:00
1:53 PM,64.9,39.9,40,29.95,10.0,West,15.0,24.2,N/A,,Clear,280,2013-10-12 18:53:00
2:53 PM,64.0,39.0,40,29.96,10.0,West,17.3,-,N/A,,Partly Cloudy,260,2013-10-12 19:53:00
3:53 PM,63.0,39.9,43,29.99,10.0,West,12.7,-,N/A,,Mostly Cloudy,270,2013-10-12 20:53:00
4:53 PM,64.0,39.0,40,30.01,10.0,West,10.4,-,N/A,,Mostly Cloudy,270,2013-10-12 21:53:00
5:53 PM,61.0,35.1,38,30.04,10.0,West,19.6,28.8,N/A,,Clear,280,2013-10-12 22:53:00
6:53 PM,55.0,37.0,51,30.07,10.0,West,5.8,-,N/A,,Clear,280,2013-10-12 23:53:00
7:53 PM,51.1,37.9,61,30.09,10.0,WSW,3.5,-,N/A,,Clear,240,2013-10-13 00:53:00
8:53 PM,48.0,39.0,71,30.11,10.0,South,4.6,-,N/A,,Clear,190,2013-10-13 01:53:00
9:53 PM,48.0,41.0,77,30.13,10.0,SSE,4.6,-,N/A,,Clear,150,2013-10-13 02:53:00
10:53 PM,46.0,39.9,79,30.17,10.0,Calm,Calm,-,N/A,,Clear,0,2013-10-13 03:53:00
11:53 PM,46.0,39.9,79,30.19,10.0,SSE,3.5,-,N/A,,Clear,160,2013-10-13 04:53:00